Lubbock, TX

7:33 PM CST on December 10, 2016 (GMT -0600)
Lubbock International

Weather History for KLBB - September, 2012

Change the Weather History Date:

Saturday, September 29, 2012

  Actual Average Record
Temperature  
Mean Temperature 64 °F 67 °F  
Max Temperature 71 °F 80 °F 97 °F (1977)
Min Temperature 57 °F 54 °F 33 °F (1916)
Degree Days  
Heating Degree Days 1 2  
Month to date heating degree days 18 21  
Since 1 July heating degree days 18 21  
Cooling Degree Days 0 4  
Month to date cooling degree days 253 218  
Year to date cooling degree days 2235 1744  
Growing Degree Days 15 (Base 50)    
Moisture  
Dew Point 59 °F    
Average Humidity 83    
Maximum Humidity 100    
Minimum Humidity 66    
Precipitation  
Precipitation 0.38 in 0.07 in 0.82 in (1945)
Month to date precipitation 2.03 2.44  
Year to date precipitation 10.45 15.51  
Snow  
Snow 0.00 in 0.00 in 0.00 in (2002)
Month to date snowfall 0.0 0.0  
Since 1 July snowfall 0.0 0.0  
Since 1 September snowfall 0.0 0.0  
Snow Depth 0.00 in    
Sea Level Pressure  
Sea Level Pressure 30.02 in    
Wind  
Wind Speed 8 mph (NE)    
Max Wind Speed 16 mph    
Max Gust Speed 21 mph    
Visibility 9 miles    
Events Rain    
T = Trace of Precipitation, MM = Missing Value Source: NWS Daily Summary

Daily Weather History Graph

Daily Weather History Graph

Search for Another Location

Airport or City:

Trip Planner

Search our weather history database for the weather conditions in past years. The results will help you decide how hot, cold, wet, or windy it might be!

Date:

Astronomy

Sep. 29, 2012 Rise Set
Actual Time 7:40 AM CDT 7:33 PM CDT
Civil Twilight 7:15 AM CDT 7:58 PM CDT
Nautical Twilight 6:46 AM CDT 8:27 PM CDT
Astronomical Twilight 6:17 AM CDT 8:56 PM CDT
Moon 7:09 PM CDT (9/29) 7:12 AM CDT (9/29)
Length of Visible Light 12h 42m
Length of Day
11h 53m
Full, 100% of the Moon is Illuminated
Sep 29
Full
Sep 29
Full
Oct 8
Last Quarter
Oct 15
New
Oct 21
First Quarter

Hourly Weather History & Observations

Time (CDT) Temp. Dew Point Humidity Pressure Visibility Wind Dir Wind Speed Gust Speed Precip Events Conditions
12:53 AM 62.1 °F 61.0 °F 96% 30.02 in 8.0 mi Calm Calm - 0.04 in Rain Light Rain
1:02 AM 62.6 °F 60.8 °F 94% 30.12 in 9.0 mi East 3.5 mph - 0.00 in Rain Light Rain
1:34 AM 62.6 °F 62.6 °F 100% 30.11 in 8.0 mi Calm Calm - 0.01 in Rain Light Rain
1:53 AM 62.1 °F 62.1 °F 100% 30.01 in 8.0 mi Calm Calm - 0.02 in Rain Light Rain
2:53 AM 61.0 °F 60.1 °F 97% 30.01 in 7.0 mi NE 4.6 mph - 0.02 in Rain Light Rain
3:46 AM 60.8 °F 60.8 °F 100% 30.11 in 6.0 mi Variable 5.8 mph - N/A Rain Light Rain
3:53 AM 61.0 °F 60.1 °F 97% 30.01 in 7.0 mi East 6.9 mph - 0.03 in Rain Light Rain
4:48 AM 60.8 °F 57.2 °F 88% 30.09 in 7.0 mi ENE 9.2 mph - 0.06 in Rain Rain
4:53 AM 60.1 °F 57.9 °F 93% 30.00 in 7.0 mi ENE 8.1 mph - 0.06 in Rain Rain
5:53 AM 59.0 °F 57.9 °F 96% 30.00 in 6.0 mi ENE 10.4 mph - 0.09 in Rain Rain
6:53 AM 59.0 °F 57.9 °F 96% 30.01 in 6.0 mi NE 8.1 mph - 0.07 in Rain Rain
7:53 AM 59.0 °F 57.9 °F 96% 30.01 in 8.0 mi NNE 9.2 mph - 0.05 in Rain Light Rain
8:53 AM 59.0 °F 57.9 °F 96% 30.02 in 10.0 mi NNE 11.5 mph - 0.02 in Rain Light Rain
9:53 AM 60.1 °F 57.9 °F 93% 30.03 in 10.0 mi North 10.4 mph - 0.01 in Rain Light Rain
10:53 AM 63.0 °F 60.1 °F 90% 30.03 in 10.0 mi NNE 10.4 mph - 0.01 in Rain Light Rain
11:53 AM 64.9 °F 57.9 °F 78% 30.03 in 10.0 mi NNE 12.7 mph - 0.00 in   Overcast
12:53 PM 69.1 °F 57.9 °F 68% 30.01 in 10.0 mi NE 11.5 mph - N/A   Overcast
1:25 PM 69.8 °F 59.0 °F 68% 30.11 in 10.0 mi NE 10.4 mph 17.3 mph N/A   Overcast
1:53 PM 66.9 °F 57.9 °F 73% 30.01 in 10.0 mi NE 11.5 mph - 0.00 in Rain Light Rain
2:53 PM 66.9 °F 59.0 °F 76% 30.00 in 10.0 mi NNE 10.4 mph - 0.00 in Rain Light Rain
3:53 PM 66.9 °F 59.0 °F 76% 29.97 in 10.0 mi NE 9.2 mph - 0.00 in   Mostly Cloudy
4:53 PM 69.1 °F 59.0 °F 70% 29.96 in 10.0 mi NNE 11.5 mph 18.4 mph N/A   Mostly Cloudy
5:10 PM 69.8 °F 59.0 °F 68% 30.06 in 10.0 mi North 9.2 mph - N/A   Mostly Cloudy
5:53 PM 68.0 °F 59.0 °F 73% 29.96 in 10.0 mi NE 9.2 mph - N/A   Mostly Cloudy
6:53 PM 66.9 °F 57.9 °F 73% 29.97 in 10.0 mi NE 10.4 mph - N/A   Mostly Cloudy
7:53 PM 64.0 °F 59.0 °F 84% 29.98 in 10.0 mi NNE 4.6 mph - N/A   Mostly Cloudy
8:53 PM 62.1 °F 60.1 °F 93% 30.00 in 10.0 mi NNE 5.8 mph - N/A   Partly Cloudy
9:53 PM 59.0 °F 57.9 °F 96% 30.02 in 10.0 mi NNE 4.6 mph - N/A   Partly Cloudy
10:53 PM 59.0 °F 57.9 °F 96% 30.03 in 10.0 mi NNE 3.5 mph - N/A   Partly Cloudy
11:53 PM 57.0 °F 57.0 °F 100% 30.02 in 10.0 mi North 4.6 mph - N/A   Partly Cloudy